Location: Beneden-Haastrecht
(52.0012°N, 4.7557°E)
Time: 12:02:32
(UTC+00:00)

Aureole 3 Rocket - Pass Details

Date: 24 October 2020
Orbit: 399 x 1739 km, 82.5° (Epoch: 24 November)

Event Time Altitude Azimuth Distance (km) Brightness Sun altitude
Rises 19:00:57 0° 211° (SSW) 2,580 6.5 -24.2°
Reaches altitude 10° 19:02:53 10° 219° (SW) 1,815 5.8 -24.5°
Maximum altitude 19:06:39 42° 291° (WNW) 944 4.4 -25.1°
Drops below altitude 10° 19:11:45 10° 2° (N) 2,474 6.2 -25.8°
Sets 19:14:47 0° 9° (N) 3,658 7.1 -26.3°
